Notices

What's New in latest Release from April 7th, 2021:

- Updated Glossary, including Speed of Maximum Gust, and Total Hourly Precipitation

- Updated national and regional climate services offices contacts and prices information

- Addition of station inventory lists for 1981-2010, 1971-2000, and 1961-1990 Normals.

If you haven't already, please take our survey and provide feedback about our website: https://eccc.sondage-survey.ca/f/LanguageSelection.aspx?s=442ca660-fcf1-47c0-95a9-59707d6fd709

Hourly Data Report for April 23, 2018

KENORA A
ONTARIO
Current Station Operator: NAVCAN

49°47'18.000" N
94°21'47.000" W
409.70 m
6034076
71850
YQK

Download Data

Hourly Data (April 2018)
Hourly Data Report for April 23, 2018
TIME
LST
Temp Definition
°C
Dew Point Definition
°C
Rel Hum Definition
%
Precip. Amount Definition
mm

Wind Dir Definition
10's deg

Wind Spd Definition
km/h
Visibility Definition
km
Stn Press Definition
kPa
Hmdx Definition


Wind Chill Definition


Weather Definition


00:00 6.7 3.4 79   19 14 24.1 96.96     Mainly Clear
01:00 6.3 3.4 82   20 16 24.1 96.95     LegendNANA
02:00 5.8 3.2 83   21 15 24.1 96.92     LegendNANA
03:00 5.0 2.9 86   21 13 24.1 96.94     Mainly Clear
04:00 4.8 2.9 88   21 13 24.1 96.97     LegendNANA
05:00 4.3 2.8 90   22 13 19.3 97.00     LegendNANA
06:00 5.1 3.6 90   24 14 32.2 97.03     Mainly Clear
07:00 6.9 3.2 77   25 13 24.1 97.07     LegendNANA
08:00 8.9 1.2 58   30 21 24.1 97.10     LegendNANA
09:00 9.5 0.8 55   29 22 32.2 97.11     Mainly Clear
10:00 10.4 0.0 48   32 17 32.2 97.13     LegendNANA
11:00 10.9 -1.2 43   30 23 24.1 97.18     LegendNANA
12:00 12.2 -0.4 41   28 15 32.2 97.17     Mostly Cloudy
13:00 12.5 -0.9 39   29 16 24.1 97.18     LegendNANA
14:00 11.8 -1.8 39   33 24 32.2 97.22     LegendNANA
15:00 12.0 -2.1 37   31 20 24.1 97.25     Mostly Cloudy
16:00 12.4 -1.4 38   33 13 32.2 97.20     LegendNANA
17:00 12.6 -1.1 38   34 13 32.2 97.18     LegendNANA
18:00 12.3 -1.2 39   34 13 32.2 97.16     Mainly Clear
19:00 10.8 -1.2 43   35 9 32.2 97.19     LegendNANA
20:00 9.5 -1.2 47   34 10 32.2 97.26     LegendNANA
21:00 8.3 -1.0 52   34 11 32.2 97.30     Mainly Clear
22:00 6.3 -1.1 59   4 8 32.2 97.32     LegendNANA
23:00 5.3 -1.2 63   1 9 32.2 97.37     LegendNANA

Notes on Data Quality.

Legend

  • E = Estimated
  • M = Missing
  • NA = Not Available*
  • [empty] = Indicates an unobserved value
Date modified: